Location: Peterborough
(44.3091°N, 78.3197°W)
Time: 08:01:42
(UTC-05:00)

A-11 Canister half - Pass Details

Date: 14 December 2023
Orbit: 1512 x 1687 km, 47.2° (Epoch: 25 February)

Event Time Altitude Azimuth Distance (km) Brightness Sun altitude
Rises 20:55:57 0° 216° (SW) 4,651 11.8 -45.7°
Reaches altitude 10° 20:59:04 10° 211° (SSW) 3,682 11.1 -46.2°
Enters shadow 21:00:21 15° 208° (SSW) 3,303 10.8 -46.4°
